Location: Cheb
(50.0670°N, 12.3670°E)
Time: 06:08:02
(UTC+02:00)

ISS - Pass Details

Date: 30 March 2019
Orbit: 408 x 410 km, 51.6° (Epoch: 23 April)

Event Time Altitude Azimuth Distance (km) Brightness Sun altitude
Rises 20:50:09 0° 285° (WNW) 2,338 1.3 -20.4°
Reaches altitude 10° 20:52:15 10° 285° (WNW) 1,475 0.0 -20.7°
Enters shadow 20:55:11 68° 295° (WNW) 444 -3.6 -21.1°
